Regional Weather Roundup
Issued by NWS

Home | Current Version | Previous Version | Graphics & Text | Print | Product List | Glossary On
Versions: 1 2 3 4 5 6 7 8 9 10 11 12 13 14 15 16 17 18 19 20 21 22 23 24 25 26 27 28 29 30 31 32 33 34 35 36 37 38 39 40 41 42 43 44 45 46 47 48 49 50
000
ASUS43 KFSD 270610
RWRSD

WEATHER ROUNDUP FOR SOUTH DAKOTA
NATIONAL WEATHER SERVICE SIOUX FALLS SD
100 AM CDT THU APR 27 2017

NOTE: "FAIR" INDICATES FEW OR NO CLOUDS BELOW 12,000 FEET WITH NO
SIGNIFICANT WEATHER AND/OR OBSTRUCTIONS TO VISIBILITY.


SDZ001>005-009-010-012>017-270700-
NORTHWEST AND NORTH CENTRAL SOUTH DAKOTA

CITY           SKY/WX    TMP DP  RH WIND       PRES   REMARKS
BUFFALO          N/A     33  24  69 NE8       29.62F WCI  26
FAITH            N/A     28  26  92 E8        29.71S WCI  20
MOBRIDGE       CLOUDY    34  25  69 NE9       29.72S WCI  27
$$

SDZ012>016-024>037-041>051-057-063-072>074-270700-
SOUTHWEST AND SOUTH CENTRAL SOUTH DAKOTA

CITY           SKY/WX    TMP DP  RH WIND       PRES   REMARKS
RAPID CTY ARPT CLEAR     29  26  89 W5        29.69F WCI  24
PIERRE         CLEAR     26  22  84 CALM      29.73R
CUSTER         FOG       29  27  92 SW3       29.65F VSB 3/4
ELLSWORTH AFB  CLEAR     31  29  95 W6        29.67F WCI  25
PHILIP         CLEAR     30  28  92 CALM      29.71F
PINE RIDGE     CLEAR     27  26  96 CALM      29.70F
WINNER         FAIR      29  24  82 E3        29.73R
$$

SDZ004>011-016>023-039-040-270700-
NORTHEAST SOUTH DAKOTA

CITY           SKY/WX    TMP DP  RH WIND       PRES   REMARKS
ABERDEEN       PTCLDY    27  22  81 N8        29.73S WCI  19
WATERTOWN      CLOUDY    27  22  81 N15       29.66S WCI  15
BROOKINGS      CLOUDY    28  23  81 N12       29.65F WCI  18
SISSETON         N/A     30  27  88 N15       29.68S WCI  19
$$

SDZ017-020-022-023-036>040-048>070-270700-
SOUTHEAST SOUTH DAKOTA

CITY           SKY/WX    TMP DP  RH WIND       PRES   REMARKS
SIOUX FALLS    CLOUDY    32  26  78 NW14      29.65F WCI  22
HURON          CLOUDY    30  25  81 N12       29.73S WCI  20
CHAMBERLAIN    CLEAR     28  26  92 CALM      29.74R
MITCHELL       CLOUDY    33  27  78 N9        29.73F WCI  25
YANKTON        CLOUDY    34  25  69 NW10      29.70F WCI  26
$$

ABBREVIATIONS USED IN REMARKS
   TC - TEMPERATURE IN CELSIUS
  WCI - WIND CHILL INDEX
   HX - HEAT INDEX
  VSB - VISIBILITY




USA.gov is the U.S. government's official web portal to all federal, state and local government web resources and services.